Location: Mantua Corners
(41.3103°N, 81.2212°W)
Time: 02:42:12
(UTC+00:00)

ACS3 Solar Sail - Pass Details

Date: 12 October 2024
Orbit: 961 x 1022 km, 97.5° (Epoch: 03 November)

Event Time Altitude Azimuth Distance (km) Brightness Sun altitude
Exits shadow 01:04:29 59° 120° (ESE) 1,172 1.8 -26.1°
Maximum altitude 01:05:27 68° 74° (ENE) 1,103 1.8 -26.2°
Drops below altitude 10° 01:11:49 10° 353° (N) 2,838 4.5 -27.4°
Sets 01:14:21 0° 351° (N) 3,793 5.2 -27.8°
